Lapse_Rate
6.7 6.7 6.1 6.2 5.8 5.7 4.7 6.5 6.5 5.6 6.5 6.6 6.0 6.5 6.5 5.6 6.6 6.9 6.5 6.5 6.5 6.5 6.5 6.5 6.5 6.5 6.5 6.5 6.5 6.5 6.5 6.5 6.5 6.5 6.5 6.5 6.5 6.5 6.5 6.5 6.5 6.5 6.5 6.5
7.7 6.9 6.4 6.2 5.5 5.3 5.9 7.3 6.6 6.2 6.4 6.5 6.5 6.4 6.5 6.6 6.5 6.5 6.5 6.5 6.5 6.5 6.5 6.5 6.5 6.5 6.4 6.8 6.5 6.5 6.5 6.5 6.5 6.5 6.5 6.5 6.5 6.5 6.5 6.5 6.5 6.5 6.5 6.5
7.5 7.4 6.7 6.6 6.6 5.7 5.1 6.9 6.5 6.4 7.1 6.8 6.5 6.5 6.5 6.5 5.7 6.5 6.5 6.5 6.5 6.5 6.5 6.5 6.5 6.5 6.5 6.5 6.6 6.1 6.3 6.5 6.5 6.5 6.5 6.5 6.5 6.5 6.5 6.5 6.5 6.5 6.5 6.5
7.3 7.5 7.0 6.6 6.7 5.9 5.6 6.5 6.5 6.7 6.5 6.6 6.5 6.5 6.5 6.5 6.5 6.5 6.5 6.5 6.5 6.5 6.5 6.5 6.5 6.5 6.5 6.3 6.3 6.4 6.5 6.5 6.5 6.5 6.5 6.5 6.5 6.5 6.5 6.5 6.5 6.5 6.5 6.5
7.8 7.3 7.2 7.0 7.0 6.1 6.0 6.4 6.5 6.6 6.4 6.5 6.4 6.5 6.5 6.5 6.5 6.5 6.5 6.5 6.5 6.5 6.5 6.5 6.5 6.5 6.5 6.5 6.5 6.5 6.5 6.5 6.5 6.5 6.5 6.5 6.5 6.5 6.5 6.5 6.5 6.5 6.5 6.5
7.8 7.2 7.3 7.2 7.2 6.9 6.4 6.1 6.5 6.8 6.9 6.3 6.5 6.5 6.5 6.5 6.3 6.2 6.0 6.5 6.5 6.5 6.5 5.7 5.4 5.9 5.8 6.1 6.5 6.5 6.5 6.5 6.5 6.5 6.5 6.5 6.5 6.5 6.5 6.5 6.5 6.5 6.5 6.5
8.5 7.9 7.6 7.5 6.9 7.5 6.6 5.9 6.3 6.6 6.5 6.5 6.5 6.5 6.4 6.5 6.3 6.5 6.3 6.5 6.4 6.1 6.3 5.6 5.3 6.0 6.0 5.8 6.2 5.6 6.5 6.5 6.5 6.5 6.5 6.5 6.5 6.5 6.5 6.5 6.5 6.5 6.5 6.5
7.9 7.8 7.7 7.6 7.3 7.2 6.9 6.2 6.8 6.8 6.5 6.6 6.6 6.6 6.5 6.5 6.5 6.1 5.7 5.9 6.0 6.3 6.5 6.5 6.5 6.5 6.5 6.5 6.5 6.5 6.5 6.5 6.5 6.5 6.5 6.5 6.5 6.5 6.5 6.5 6.5 6.5 6.5 6.5
7.6 7.8 7.4 7.6 7.4 7.2 7.4 7.0 6.8 7.0 6.6 6.6 7.3 6.6 6.6 6.5 6.5 6.5 6.0 4.3 5.2 6.2 6.4 6.5 6.5 6.5 6.5 6.5 6.5 6.5 6.5 6.5 6.5 6.5 6.5 6.5 6.5 6.5 6.6 6.5 6.5 6.5 6.3 6.6
8.4 8.0 7.7 6.9 6.6 6.8 7.5 7.6 7.6 7.4 6.8 7.3 7.1 6.7 6.6 6.9 6.5 6.5 5.8 5.8 5.8 6.1 6.5 6.5 6.5 6.5 6.5 6.5 6.5 6.5 6.5 6.5 6.5 6.5 6.5 6.5 6.5 6.5 6.5 6.5 6.5 6.2 6.3 5.1
8.5 8.4 8.4 8.3 8.0 6.6 7.6 7.3 8.0 7.3 7.2 7.5 7.7 7.8 7.1 6.8 6.2 6.5 5.7 6.2 6.3 6.2 6.5 6.5 6.5 6.5 6.5 6.5 6.5 6.5 6.5 6.5 6.5 6.5 6.5 6.5 6.4 6.4 6.5 6.3 6.3 6.7 6.3 5.2
9.2 9.3 8.9 8.7 7.7 7.3 7.0 6.7 7.8 8.2 6.5 7.4 7.8 7.8 8.0 7.7 6.5 7.0 5.9 5.7 5.9 5.6 6.5 6.5 6.5 6.5 6.5 6.5 6.5 6.5 6.5 6.5 6.5 6.5 6.5 6.3 6.5 6.3 6.1 5.7 5.4 5.6 5.9 5.8
9.2 9.3 9.2 8.8 8.5 7.9 7.5 7.1 7.3 6.8 6.9 7.0 7.4 7.4 7.9 7.9 6.9 5.2 6.2 5.4 6.4 5.1 3.7 5.4 6.4 6.5 6.5 6.5 6.5 6.5 6.5 6.2 6.5 6.5 6.5 6.5 6.4 6.2 6.5 6.3 6.2 5.5 5.1 6.2
9.2 9.3 8.9 8.9 8.4 7.7 8.0 7.1 7.2 6.9 6.7 6.5 6.7 8.2 7.0 7.1 7.1 6.6 5.5 5.6 4.9 4.7 4.0 4.9 6.5 6.5 5.6 6.5 6.5 6.5 6.3 6.3 6.5 6.5 6.4 5.9 6.0 5.5 5.7 6.0 5.8 5.6 4.7 4.9
7.6 7.6 7.9 8.3 8.0 7.8 7.3 6.8 7.2 6.7 6.7 6.5 6.6 6.1 6.8 6.0 5.3 5.2 5.3 5.1 5.4 4.7 5.2 6.2 6.5 5.6 6.2 6.3 6.5 6.5 6.0 6.5 6.5 6.5 6.1 5.9 6.0 5.9 5.2 5.9 5.4 5.0 5.9 5.3
7.6 7.5 8.2 8.2 7.5 6.3 6.4 6.8 6.8 7.0 6.5 6.6 6.5 5.3 5.5 6.0 5.8 5.7 6.1 5.8 5.9 4.8 4.5 5.3 4.8 4.7 5.8 6.5 6.5 6.3 4.9 5.0 4.3 5.9 5.6 5.4 5.6 5.1 4.9 4.8 4.8 3.9 4.6 5.2
7.9 7.9 8.1 7.1 6.2 6.5 6.8 6.4 5.2 6.1 6.5 6.6 6.3 6.5 5.3 6.8 6.2 7.2 6.5 5.4 5.5 4.7 4.6 5.3 5.4 5.9 5.4 6.5 6.5 6.0 5.5 5.8 5.3 4.1 5.0 6.1 5.3 5.1 4.5 4.8 4.2 4.0 3.9 3.6
7.4 7.9 6.8 5.5 6.6 6.0 6.5 6.2 6.2 6.3 7.0 7.4 6.5 6.5 6.1 5.8 6.5 6.3 6.2 5.9 5.8 5.4 5.0 5.1 6.2 5.9 5.8 6.5 6.3 5.5 5.9 6.3 5.9 4.7 3.7 4.3 4.6 5.0 4.6 4.7 4.7 5.4 4.4 3.7
7.3 5.9 5.1 6.5 6.7 6.7 6.7 7.3 7.6 7.4 6.6 6.5 6.4 6.5 6.5 4.7 5.9 5.6 5.5 6.6 6.5 5.7 6.5 6.4 6.1 6.5 6.5 6.5 6.2 5.5 5.3 5.6 5.4 4.7 4.7 5.3 4.7 4.5 4.4 4.9 5.2 5.6 4.8 4.4
6.0 5.1 6.0 5.4 5.9 6.4 6.5 6.3 6.9 7.1 6.3 6.2 6.5 5.6 6.5 6.0 6.1 6.4 6.5 6.0 6.5 6.5 6.5 5.5 6.5 6.5 6.0 5.6 5.1 4.6 4.6 4.6 4.6 3.5 4.9 4.5 4.8 4.3 4.6 4.7 4.3 4.5 4.7 4.3
4.5 5.5 5.8 5.3 4.9 5.3 5.0 6.3 6.4 6.3 6.5 6.4 6.4 6.5 6.5 5.6 6.5 6.5 6.1 6.5 6.5 6.5 6.5 6.5 6.5 6.5 6.4 6.2 5.2 4.5 4.4 4.9 4.5 4.4 4.2 4.5 4.2 3.9 4.4 4.9 4.6 4.1 3.9 3.4
5.8 5.3 4.3 4.5 4.5 5.2 6.5 6.5 6.5 6.5 6.5 6.5 6.5 6.6 6.5 5.6 5.2 6.5 6.4 6.5 6.5 6.5 6.3 6.5 6.5 6.5 6.2 6.0 5.6 4.9 4.6 5.1 4.7 5.0 4.4 4.2 3.7 3.6 3.7 2.9 1.9 2.1 1.5 0.7
4.0 5.0 6.1 6.3 6.3 6.5 6.5 6.5 6.5 6.5 6.5 6.4 6.5 6.5 5.8 5.6 5.3 6.5 6.5 6.5 6.5 6.4 6.5 6.5 6.5 6.3 6.3 5.6 4.9 4.6 5.3 4.5 4.3 3.9 3.6 3.3 3.0 2.8 3.3 2.7 2.9 2.8 2.1 2.0
6.5 6.6 6.5 6.5 6.5 6.5 6.5 6.5 6.5 6.4 6.2 6.1 5.8 6.5 6.4 5.8 6.5 6.5 6.5 6.5 6.5 6.5 6.5 6.5 6.5 6.0 6.0 5.6 5.8 4.7 4.9 4.2 2.9 1.2 1.1 1.9 2.5 2.2 2.2 2.3 2.7 2.6 2.0 2.0
6.6 6.6 6.5 6.5 6.7 6.7 6.6 6.6 6.5 5.7 5.4 5.4 6.0 6.2 6.1 6.5 6.5 6.5 6.5 6.5 6.5 6.5 6.5 6.5 6.3 5.4 5.3 5.2 5.4 4.9 4.2 3.5 2.5 2.1 0.3 0.1 0.8 2.3 1.6 1.6 1.7 1.8 1.8 1.9
6.6 6.6 6.5 6.7 6.5 6.5 6.6 6.6 6.6 5.7 5.8 5.4 5.5 6.5 6.5 6.5 6.5 6.5 6.5 6.5 6.5 6.5 6.5 6.3 5.6 5.2 5.1 4.9 4.7 4.8 4.6 4.0 3.0 2.2 1.9 0.9 0.7 1.3 1.5 1.4 1.3 1.5 1.8 1.5
6.5 6.5 6.9 6.7 6.7 6.6 6.8 6.8 6.7 5.6 6.5 6.5 6.5 6.5 6.5 6.5 6.5 6.5 6.5 6.5 6.5 6.6 6.5 5.7 5.1 5.1 5.4 4.8 4.2 4.1 3.7 3.2 2.5 2.0 1.2 0.8 -0.1 -1.4 -0.1 1.0 1.6 1.6 1.5 -0.0
Wind_Speed
11 11 13 15 10 4 3 3 3 1 3 2 3 4 4 3 4 3 5 3 5 7 5 6 6 4 3 5 3 3 6 3 5 9 5 5 3 5 4 3 3 1 2 5
11 13 12 11 8 7 3 3 2 1 2 3 6 8 8 5 4 5 4 4 6 2 3 3 8 4 5 3 2 2 3 4 4 2 1 1 2 4 7 4 1 5 2 3
12 10 12 11 10 11 2 3 3 2 3 4 4 4 7 9 7 6 5 6 4 4 5 8 5 5 0 5 3 3 2 4 6 6 11 9 7 6 7 6 3 1 5 7
15 11 8 11 10 12 3 2 4 2 4 6 11 9 8 11 4 4 3 4 9 6 4 6 7 6 6 5 6 2 3 5 7 11 16 13 16 15 9 10 10 5 4 4
17 13 9 7 9 13 4 2 2 3 6 8 8 10 6 11 10 9 5 8 6 10 7 6 5 5 4 7 5 3 4 5 7 9 11 8 8 7 8 7 8 9 11 15
17 16 11 10 7 5 3 2 2 2 5 7 8 10 10 9 7 8 11 5 7 8 10 6 5 4 4 6 3 3 3 3 5 5 7 9 4 3 3 4 3 4 5 5
20 18 16 14 13 9 3 3 2 4 11 11 14 17 14 12 11 12 5 3 5 1 3 5 6 7 7 7 7 6 4 4 3 5 9 4 2 1 2 2 5 3 2 5
23 18 17 17 16 16 6 4 3 4 10 13 14 16 19 19 16 10 7 7 1 1 2 3 5 2 1 6 7 7 5 3 4 2 3 5 1 1 2 3 2 2 5 7
18 14 17 19 22 22 9 7 5 5 7 12 17 14 15 14 13 14 13 3 2 1 3 2 4 4 2 3 2 5 3 3 2 4 3 3 1 1 1 2 2 2 5 7
17 19 22 25 27 27 15 9 15 6 11 17 12 10 12 15 13 11 4 5 3 0 3 4 4 4 2 4 5 5 3 3 5 5 4 5 1 1 2 2 3 3 2 8
23 23 25 27 29 32 20 10 22 12 11 18 19 16 20 13 5 11 2 4 2 2 4 4 5 4 5 2 4 6 6 6 4 3 2 5 3 2 2 2 2 1 0 6
24 26 29 31 33 33 32 13 18 19 10 6 10 19 24 25 27 13 4 3 3 4 3 4 2 3 2 3 3 3 2 4 2 3 3 1 2 3 2 2 3 4 3 5
29 31 34 33 35 37 32 13 8 10 14 15 16 21 17 14 8 4 8 4 3 3 2 2 2 6 3 4 5 4 4 2 2 3 1 1 3 3 2 3 2 3 3 1
33 35 37 36 37 38 36 15 13 15 5 8 14 11 29 24 12 11 6 2 1 2 0 3 3 3 2 2 1 3 3 6 4 3 4 5 5 5 4 3 2 3 3 3
35 37 40 38 40 37 33 16 16 18 16 3 9 4 14 8 10 13 11 9 5 3 2 3 4 1 2 1 2 3 4 5 5 4 3 3 4 4 4 5 6 6 3 2
36 39 40 40 40 39 8 9 14 15 18 7 4 3 6 14 14 15 12 9 6 4 4 4 2 1 1 3 4 0 4 3 3 5 3 4 6 6 5 4 5 5 5 5
37 39 39 38 39 13 11 6 6 30 20 6 4 2 1 9 10 7 5 3 3 3 3 4 3 3 3 2 4 5 6 5 4 4 3 4 4 2 4 3 4 3 3 3
37 39 40 38 5 8 4 3 27 24 13 5 3 3 3 2 4 3 3 4 3 1 2 2 3 2 1 4 5 7 5 2 5 4 5 4 2 1 4 2 1 0 3 3
39 38 38 6 3 2 3 13 25 7 3 4 4 6 4 4 2 3 1 3 3 1 3 2 3 3 5 4 9 8 5 3 5 0 2 5 6 5 4 3 3 3 4 4
35 8 1 2 2 20 8 3 4 2 2 2 3 4 6 4 2 3 4 2 3 4 3 4 3 4 3 4 5 7 6 5 3 3 4 4 4 4 3 2 2 2 4 5
3 3 2 2 9 3 2 2 2 3 4 4 4 3 5 3 4 3 2 4 4 5 3 5 4 3 3 5 5 5 5 4 3 3 3 3 4 2 1 3 3 4 5 3
6 6 6 3 2 2 5 5 3 5 5 4 6 5 3 3 3 3 3 3 4 4 6 3 4 2 4 5 4 5 5 5 5 4 5 5 6 4 4 4 4 4 5 4
2 2 2 2 2 2 2 5 3 2 1 3 4 5 4 3 3 2 3 4 3 5 2 3 3 5 5 4 4 5 4 6 5 5 5 7 6 6 5 5 4 5 6 5
2 3 4 3 3 3 2 3 2 1 2 5 3 4 3 2 2 2 4 3 4 3 3 2 2 5 6 4 3 5 5 6 5 5 6 7 7 6 6 6 4 5 5 5
3 3 3 4 2 3 4 3 2 3 2 1 2 3 3 3 3 3 3 2 3 3 3 2 5 6 6 6 5 6 6 5 6 5 5 5 6 6 6 5 5 6 6 6
2 5 3 3 4 6 5 6 5 5 4 1 2 3 4 4 2 2 3 3 3 2 3 6 6 7 6 6 6 5 5 6 6 6 6 6 6 5 4 5 6 6 6 6
4 2 4 4 2 3 3 3 5 5 3 3 3 5 4 2 4 4 4 3 4 8 6 5 7 7 6 6 6 7 6 7 7 7 7 5 3 4 5 6 5 5 5 4
Wind_Direction
346 337 337 334 223 254 301 274 253 161 204 206 231 219 235 11 272 197 273 279 267 266 295 286 278 258 352 100 141 241 202 288 278 244 41 43 335 267 254 268 337 351 203 279
331 339 337 326 227 209 327 253 213 148 259 232 231 248 250 211 266 223 213 254 227 355 278 285 277 279 109 126 231 294 39 253 300 318 45 20 225 201 232 213 267 225 309 285
306 316 342 336 341 218 168 282 248 142 205 301 289 303 285 264 187 266 246 272 259 247 248 223 267 298 294 125 243 61 21 259 237 252 270 320 269 235 222 210 234 250 229 268
297 298 321 352 346 230 216 240 261 196 189 232 226 256 289 297 278 211 241 261 229 210 260 270 226 258 280 179 144 216 235 265 258 264 276 282 274 270 249 206 233 249 309 207
298 283 291 316 331 342 242 242 280 304 262 282 269 203 212 245 252 257 224 234 276 228 244 247 293 333 311 253 161 222 194 276 311 288 270 229 266 275 253 244 232 244 264 281
296 275 267 267 283 4 291 222 311 344 284 254 254 235 248 240 268 254 232 234 258 265 254 287 305 296 278 270 225 244 197 283 338 276 317 308 301 272 276 199 236 243 258 272
284 276 265 255 255 234 255 318 302 229 255 244 248 261 272 274 254 255 252 240 264 287 334 304 271 256 254 243 237 201 293 290 218 279 315 349 256 58 281 293 292 102 336 100
277 265 261 266 266 262 249 265 262 272 250 248 257 250 254 272 281 278 264 239 223 145 311 316 293 227 296 236 212 212 190 289 283 274 290 251 184 66 352 26 126 134 121 117
279 281 284 281 280 271 256 246 245 267 282 247 250 250 245 251 258 260 249 114 43 335 235 217 248 254 208 180 140 25 169 235 272 329 281 297 256 52 35 302 67 93 132 128
286 288 284 283 280 271 261 252 228 238 262 257 277 251 243 244 249 260 99 150 172 268 197 217 228 251 150 204 197 171 170 201 215 231 271 290 45 47 318 0 255 339 145 143
279 279 275 274 275 271 262 252 230 228 247 260 259 258 251 270 269 245 135 100 200 157 216 202 226 226 217 200 173 176 167 167 204 201 243 301 0 315 30 249 33 12 264 144
286 281 277 276 277 268 258 252 219 222 231 253 266 247 246 257 256 273 228 263 135 205 197 236 257 231 196 223 223 340 213 184 191 193 217 104 30 102 113 25 43 1 81 123
288 287 283 277 279 271 251 245 226 212 234 252 248 238 249 261 252 236 222 247 202 254 157 254 245 244 158 189 225 156 201 125 195 11 27 94 101 110 71 34 70 32 33 134
293 287 288 278 278 271 253 245 235 216 225 236 249 213 226 241 216 228 221 207 312 19 81 228 223 228 160 254 246 200 160 140 190 238 140 96 67 71 38 55 68 78 38 16
296 292 288 283 280 269 264 247 228 206 202 250 231 173 187 165 193 222 220 187 177 172 223 224 223 227 161 317 349 245 194 177 169 196 129 112 112 81 27 51 49 35 39 56
297 296 292 293 286 282 252 241 217 204 195 215 207 336 173 180 189 201 208 207 201 181 184 217 226 260 199 183 210 181 82 44 54 147 104 100 109 102 56 65 46 29 22 26
301 299 303 296 297 268 222 214 193 175 174 195 199 178 235 184 175 198 185 157 191 187 177 204 172 206 191 216 220 145 104 100 97 80 128 113 61 100 358 30 24 28 67 49
307 305 306 298 285 335 312 255 159 151 168 167 151 137 126 203 180 154 186 143 180 190 169 146 154 111 37 248 182 127 119 166 129 93 65 94 115 71 72 65 56 114 91 93
314 315 297 261 219 206 330 149 138 120 108 146 160 187 188 157 200 117 172 140 164 106 174 169 103 146 222 237 155 147 138 150 149 242 136 123 110 98 72 68 76 97 112 105
322 305 254 167 211 127 99 119 146 141 273 166 175 152 173 183 187 141 127 149 141 167 187 115 198 220 106 64 74 104 116 132 155 123 115 100 112 80 51 70 76 91 125 118
334 321 338 315 301 63 38 156 175 177 168 188 153 158 139 210 164 164 189 150 163 170 174 165 169 237 134 126 99 96 107 132 119 92 105 120 114 117 71 77 93 86 94 93
269 288 295 311 39 160 174 189 177 207 205 155 152 138 129 168 145 160 187 128 186 162 160 160 163 108 94 104 119 90 98 126 121 119 118 97 85 68 77 77 81 83 98 102
297 224 269 350 335 32 298 178 167 188 197 164 154 133 131 157 174 160 160 131 97 135 162 152 113 128 111 108 118 83 95 89 94 95 88 84 84 68 79 96 78 104 99 109
298 344 37 20 9 27 329 312 330 309 279 107 96 112 167 157 142 119 73 77 149 134 131 129 108 111 90 93 94 103 86 95 98 79 71 76 84 79 65 64 68 100 93 86
352 359 43 38 356 345 322 328 312 332 320 69 92 70 74 59 85 52 117 154 105 108 113 85 119 111 112 93 86 89 85 84 75 77 78 70 69 88 76 54 69 86 92 89
22 31 355 9 6 2 358 351 2 354 335 334 42 93 78 53 93 94 21 102 91 88 83 104 105 96 87 83 72 68 68 67 69 60 66 64 59 71 79 70 63 65 82 85
25 24 7 354 341 1 341 325 344 320 16 38 23 44 36 298 59 48 13 31 92 99 89 81 86 93 93 86 76 62 60 63 52 53 47 39 18 30 52 60 35 52 62 79